• en France
  • Liste des pays
  • À 7 jours
  • Température de l'eau
  • Carte satellitaire
  • Carte météo
  • Widgets météo
  • user-avatar
    Se connecter

    Météo par heure à Barisal

    Ce jour, 21 Janvier, Dimanche

    Heure Température Précipitation Vent Pression Humidité
    00:00 +18°C° 0 mm 2 m/s 759 mmHg 49%
    01:00 +18°C° 0 mm 2 m/s 759 mmHg 51%
    02:00 +18°C° 0 mm 2 m/s 759 mmHg 52%
    03:00 +17°C° 0 mm 2 m/s 759 mmHg 53%
    04:00 +17°C° 0 mm 2 m/s 759 mmHg 55%
    05:00 +17°C° 0 mm 2 m/s 759 mmHg 56%
    06:00 +17°C° 0 mm 2 m/s 759 mmHg 58%
    07:00 +18°C° 0 mm 3 m/s 760 mmHg 54%
    08:00 +20°C° 0 mm 3 m/s 760 mmHg 50%
    09:00 +22°C° 0 mm 3 m/s 761 mmHg 46%
    10:00 +24°C° 0 mm 3 m/s 760 mmHg 40%
    11:00 +26°C° 0 mm 3 m/s 760 mmHg 34%
    12:00 +28°C° 0 mm 4 m/s 760 mmHg 27%
    13:00 +29°C° 0 mm 4 m/s 759 mmHg 26%
    14:00 +29°C° 0 mm 4 m/s 759 mmHg 24%
    15:00 +30°C° 0 mm 4 m/s 758 mmHg 23%
    16:00 +28°C° 0 mm 3 m/s 758 mmHg 26%
    17:00 +26°C° 0 mm 3 m/s 758 mmHg 29%
    18:00 +25°C° 0 mm 2 m/s 757 mmHg 32%
    19:00 +24°C° 0 mm 2 m/s 758 mmHg 34%
    20:00 +22°C° 0 mm 3 m/s 758 mmHg 35%
    21:00 +21°C° 0 mm 3 m/s 758 mmHg 37%
    22:00 +20°C° 0 mm 3 m/s 758 mmHg 38%
    23:00 +20°C° 0 mm 3 m/s 758 mmHg 40%

    Demain, 22 Janvier, Lundi

    Heure Température Précipitation Vent Pression Humidité
    00:00 +19°C° 0 mm 3 m/s 758 mmHg 41%
    01:00 +19°C° 0 mm 3 m/s 758 mmHg 42%
    02:00 +18°C° 0 mm 3 m/s 758 mmHg 43%
    03:00 +18°C° 0 mm 3 m/s 758 mmHg 44%
    04:00 +18°C° 0 mm 3 m/s 758 mmHg 46%
    05:00 +17°C° 0 mm 2 m/s 758 mmHg 47%
    06:00 +17°C° 0 mm 2 m/s 758 mmHg 48%
    07:00 +19°C° 0 mm 2 m/s 758 mmHg 45%
    08:00 +20°C° 0 mm 3 m/s 759 mmHg 42%
    09:00 +22°C° 0 mm 3 m/s 760 mmHg 39%
    10:00 +25°C° 0 mm 3 m/s 759 mmHg 33%
    11:00 +27°C° 0 mm 3 m/s 759 mmHg 28%
    12:00 +28°C° 0 mm 3 m/s 759 mmHg 23%
    13:00 +29°C° 0 mm 3 m/s 758 mmHg 22%
    14:00 +29°C° 0 mm 3 m/s 757 mmHg 20%
    15:00 +30°C° 0 mm 3 m/s 757 mmHg 19%
    16:00 +28°C° 0 mm 3 m/s 757 mmHg 22%
    17:00 +26°C° 0 mm 3 m/s 757 mmHg 25%
    18:00 +25°C° 0 mm 2 m/s 757 mmHg 28%
    19:00 +24°C° 0 mm 2 m/s 757 mmHg 29%
    20:00 +23°C° 0 mm 2 m/s 758 mmHg 31%
    21:00 +21°C° 0 mm 2 m/s 758 mmHg 33%
    22:00 +20°C° 0 mm 2 m/s 758 mmHg 34%
    23:00 +20°C° 0 mm 2 m/s 758 mmHg 35%

    Après-demain, 23 Janvier, Mardi

    Heure Température Précipitation Vent Pression Humidité
    00:00 +19°C° 0 mm 2 m/s 758 mmHg 36%
    01:00 +19°C° 0 mm 2 m/s 758 mmHg 37%
    02:00 +18°C° 0 mm 2 m/s 757 mmHg 38%
    03:00 +18°C° 0 mm 2 m/s 757 mmHg 39%
    04:00 +18°C° 0 mm 2 m/s 757 mmHg 41%
    05:00 +17°C° 0 mm 2 m/s 757 mmHg 42%
    06:00 +17°C° 0 mm 2 m/s 758 mmHg 44%
    07:00 +19°C° 0 mm 2 m/s 758 mmHg 42%
    08:00 +20°C° 0 mm 2 m/s 759 mmHg 40%
    09:00 +23°C° 0 mm 2 m/s 760 mmHg 38%
    10:00 +25°C° 0 mm 2 m/s 759 mmHg 33%
    11:00 +27°C° 0 mm 2 m/s 759 mmHg 28%
    12:00 +28°C° 0 mm 2 m/s 758 mmHg 24%
    13:00 +29°C° 0 mm 2 m/s 758 mmHg 22%
    14:00 +30°C° 0 mm 3 m/s 757 mmHg 21%
    15:00 +30°C° 0 mm 3 m/s 756 mmHg 19%
    16:00 +29°C° 0 mm 2 m/s 756 mmHg 21%
    17:00 +27°C° 0 mm 2 m/s 756 mmHg 24%
    18:00 +25°C° 0 mm 1 m/s 756 mmHg 26%
    19:00 +24°C° 0 mm 1 m/s 756 mmHg 27%
    20:00 +23°C° 0 mm 1 m/s 757 mmHg 28%
    21:00 +23°C° 0 mm 1 m/s 757 mmHg 29%
    22:00 +22°C° 0 mm 1 m/s 757 mmHg 30%
    23:00 +20°C° 0 mm 2 m/s 757 mmHg 30%

    24 Janvier, Mercredi

    Heure Température Précipitation Vent Pression Humidité
    00:00 +20°C° 0 mm 2 m/s 757 mmHg 31%
    01:00 +20°C° 0 mm 1 m/s 757 mmHg 31%
    02:00 +20°C° 0 mm 1 m/s 756 mmHg 32%
    03:00 +20°C° 0 mm 1 m/s 756 mmHg 33%
    04:00 +19°C° 0 mm 1 m/s 756 mmHg 34%
    05:00 +19°C° 0 mm 1 m/s 756 mmHg 35%
    06:00 +19°C° 0 mm 1 m/s 757 mmHg 37%
    07:00 +20°C° 0 mm 1 m/s 757 mmHg 35%
    08:00 +22°C° 0 mm 1 m/s 758 mmHg 33%
    09:00 +24°C° 0 mm 1 m/s 758 mmHg 31%
    10:00 +26°C° 0 mm 1 m/s 758 mmHg 27%
    11:00 +28°C° 0 mm 1 m/s 758 mmHg 24%
    12:00 +28°C° 0 mm 0 m/s 757 mmHg 21%
    13:00 +31°C° 0 mm 1 m/s 756 mmHg 21%
    14:00 +31°C° 0 mm 1 m/s 756 mmHg 21%
    15:00 +31°C° 0 mm 2 m/s 755 mmHg 20%
    16:00 +30°C° 0 mm 2 m/s 755 mmHg 23%
    17:00 +28°C° 0 mm 2 m/s 755 mmHg 26%
    18:00 +27°C° 0 mm 2 m/s 755 mmHg 29%
    19:00 +26°C° 0 mm 2 m/s 755 mmHg 35%
    20:00 +24°C° 0 mm 2 m/s 756 mmHg 41%
    21:00 +23°C° 0 mm 2 m/s 756 mmHg 47%
    22:00 +23°C° 0 mm 2 m/s 756 mmHg 51%
    23:00 +21°C° 0 mm 2 m/s 756 mmHg 55%

    25 Janvier, Jeudi

    Heure Température Précipitation Vent Pression Humidité
    00:00 +21°C° 0 mm 2 m/s 756 mmHg 59%
    01:00 +21°C° 0 mm 2 m/s 755 mmHg 61%
    02:00 +20°C° 0 mm 2 m/s 755 mmHg 64%
    03:00 +20°C° 0 mm 2 m/s 755 mmHg 66%
    04:00 +21°C° 0 mm 1 m/s 755 mmHg 69%
    05:00 +21°C° 0 mm 1 m/s 755 mmHg 71%
    06:00 +20°C° 0 mm 1 m/s 755 mmHg 74%
    07:00 +22°C° 0 mm 1 m/s 756 mmHg 68%
    08:00 +24°C° 0 mm 1 m/s 757 mmHg 63%
    09:00 +25°C° 0 mm 1 m/s 757 mmHg 57%
    10:00 +27°C° 0 mm 2 m/s 757 mmHg 51%
    11:00 +29°C° 0 mm 2 m/s 757 mmHg 44%
    12:00 +31°C° 0 mm 2 m/s 756 mmHg 38%
    13:00 +31°C° 0 mm 2 m/s 756 mmHg 35%
    14:00 +33°C° 0 mm 3 m/s 755 mmHg 33%
    15:00 +33°C° 0 mm 3 m/s 754 mmHg 31%
    16:00 +31°C° 0 mm 3 m/s 754 mmHg 34%
    17:00 +29°C° 0 mm 3 m/s 754 mmHg 37%
    18:00 +28°C° 0 mm 3 m/s 754 mmHg 40%
    19:00 +27°C° 0 mm 3 m/s 755 mmHg 45%
    20:00 +25°C° 0 mm 3 m/s 756 mmHg 49%
    21:00 +24°C° 0 mm 2 m/s 756 mmHg 54%
    22:00 +24°C° 0 mm 2 m/s 756 mmHg 53%
    23:00 +23°C° 0 mm 2 m/s 756 mmHg 51%

    26 Janvier, Vendredi

    Heure Température Précipitation Vent Pression Humidité
    00:00 +22°C° 0 mm 3 m/s 756 mmHg 49%
    01:00 +21°C° 0 mm 3 m/s 756 mmHg 48%
    02:00 +20°C° 0 mm 3 m/s 756 mmHg 46%
    03:00 +20°C° 0 mm 3 m/s 756 mmHg 45%
    04:00 +19°C° 0 mm 3 m/s 756 mmHg 48%
    05:00 +19°C° 0 mm 3 m/s 756 mmHg 51%
    06:00 +18°C° 0 mm 3 m/s 756 mmHg 54%
    07:00 +20°C° 0 mm 3 m/s 757 mmHg 51%
    08:00 +21°C° 0 mm 3 m/s 757 mmHg 47%
    09:00 +24°C° 0 mm 3 m/s 758 mmHg 44%
    10:00 +26°C° 0 mm 3 m/s 758 mmHg 38%
    11:00 +28°C° 0 mm 3 m/s 757 mmHg 33%
    12:00 +29°C° 0 mm 3 m/s 757 mmHg 27%
    13:00 +30°C° 0 mm 3 m/s 756 mmHg 26%
    14:00 +30°C° 0 mm 3 m/s 756 mmHg 25%
    15:00 +32°C° 0 mm 4 m/s 755 mmHg 24%
    16:00 +29°C° 0 mm 3 m/s 755 mmHg 26%
    17:00 +28°C° 0 mm 3 m/s 755 mmHg 29%
    18:00 +26°C° 0 mm 2 m/s 755 mmHg 32%
    19:00 +25°C° 0 mm 2 m/s 755 mmHg 34%
    20:00 +24°C° 0 mm 2 m/s 756 mmHg 35%
    21:00 +22°C° 0 mm 3 m/s 756 mmHg 37%
    22:00 +22°C° 0 mm 3 m/s 756 mmHg 38%
    23:00 +21°C° 0 mm 3 m/s 756 mmHg 39%
    Voir plus